Weather History for Brookings, SD

Change the Weather History Date:

Monday, July 22, 2013

  Actual Average Record
Temperature  
Mean Temperature 69 °F -  
Max Temperature 78 °F 79 °F 95 °F (2012)
Min Temperature 60 °F 59 °F 48 °F (2000)
Cooling Degree Days 4    
Growing Degree Days 19 (Base 50)    
Moisture  
Dew Point 63 °F    
Average Humidity 72    
Maximum Humidity 88    
Minimum Humidity 54    
Precipitation  
Precipitation 0.17 in - - ()
Sea Level Pressure  
Sea Level Pressure 29.82 in    
Wind  
Wind Speed 10 mph (NW)    
Max Wind Speed 16 mph    
Max Gust Speed 39 mph    
Visibility 10 miles    
Events Thunderstorm    
Averages and records for this station are not official NWS values.
T = Trace of Precipitation, MM = Missing Value Source: NWS Daily Summary

Daily Weather History Graph

Daily Weather History Graph

Search for Another Location

Airport:

Trip Planner

Search our weather history database for the weather conditions in past years. The results will help you decide how hot, cold, wet, or windy it might be!

Date:

Astronomy

Jul. 22, 2013 Rise Set
Actual Time 6:04 AM CDT 9:02 PM CDT
Civil Twilight 5:29 AM CDT 9:36 PM CDT
Nautical Twilight 4:45 AM CDT 10:20 PM CDT
Astronomical Twilight 3:53 AM CDT 11:12 PM CDT
Moon 8:45 PM CDT (7/22) 6:04 AM CDT (7/22)
Length of Visible Light 16h 07m
Length of Day
14h 58m
Full, 100% of the Moon is Illuminated
Jul 22
Full
Jul 22
Full
Jul 29
Last Quarter
Aug 6
New
Aug 14
First Quarter

Hourly Weather History & Observations

Time (CDT) Temp. Dew Point Humidity Pressure Visibility Wind Dir Wind Speed Gust Speed Precip Events Conditions
12:15 AM 71.6 °F 66.2 °F 83% 29.77 in 10.0 mi South 10.4 mph - N/A   Clear
12:35 AM 71.6 °F 64.4 °F 78% 29.76 in 10.0 mi South 11.5 mph - N/A   Clear
12:55 AM 71.6 °F 64.4 °F 78% 29.77 in 10.0 mi South 10.4 mph - N/A   Clear
1:15 AM 71.6 °F 64.4 °F 78% 29.78 in 10.0 mi SSE 8.1 mph - N/A   Clear
1:35 AM 71.6 °F 64.4 °F 78% 29.78 in 10.0 mi South 8.1 mph - N/A   Clear
1:55 AM 71.6 °F 64.4 °F 78% 29.78 in 10.0 mi South 6.9 mph - N/A   Clear
2:15 AM 69.8 °F 64.4 °F 83% 29.78 in 10.0 mi SSE 6.9 mph - N/A   Clear
2:35 AM 69.8 °F 64.4 °F 83% 29.77 in 10.0 mi South 6.9 mph - N/A   Clear
2:55 AM 69.8 °F 64.4 °F 83% 29.76 in 10.0 mi South 8.1 mph - N/A   Clear
3:15 AM 69.8 °F 64.4 °F 83% 29.76 in 10.0 mi SSE 9.2 mph - N/A   Clear
3:35 AM 69.8 °F 64.4 °F 83% 29.75 in 10.0 mi South 9.2 mph - N/A   Clear
3:55 AM 69.8 °F 64.4 °F 83% 29.75 in 10.0 mi SSE 6.9 mph - N/A   Mostly Cloudy
4:15 AM 69.8 °F 64.4 °F 83% 29.74 in 10.0 mi South 9.2 mph - N/A   Mostly Cloudy
4:35 AM 69.8 °F 64.4 °F 83% 29.72 in 10.0 mi South 10.4 mph - N/A   Scattered Clouds
4:55 AM 69.8 °F 64.4 °F 83% 29.71 in 10.0 mi South 9.2 mph - N/A   Clear
5:15 AM 69.8 °F 64.4 °F 83% 29.72 in 10.0 mi South 10.4 mph - N/A   Clear
5:35 AM 71.6 °F 64.4 °F 78% 29.72 in 10.0 mi South 11.5 mph - N/A   Mostly Cloudy
5:55 AM 69.8 °F 64.4 °F 83% 29.78 in 10.0 mi NW 13.8 mph 39.1 mph N/A   Overcast
6:15 AM 69.8 °F 62.6 °F 78% 29.76 in 5.0 mi WSW 10.4 mph 20.7 mph 0.16 in Thunderstorm Thunderstorm
6:35 AM 69.8 °F 64.4 °F 83% 29.76 in 10.0 mi West 8.1 mph - 0.17 in Thunderstorm Thunderstorm
6:55 AM 69.8 °F 64.4 °F 83% 29.76 in 9.0 mi WSW 4.6 mph - 0.17 in Thunderstorm Thunderstorm
7:15 AM 69.8 °F 66.2 °F 88% 29.75 in 10.0 mi SSW 5.8 mph - N/A Thunderstorm Scattered Clouds
7:35 AM 69.8 °F 66.2 °F 88% 29.75 in 10.0 mi South 8.1 mph - N/A   Clear
7:55 AM 69.8 °F 66.2 °F 88% 29.75 in 10.0 mi SW 6.9 mph - N/A   Clear
8:15 AM 69.8 °F 66.2 °F 88% 29.76 in 10.0 mi SW 4.6 mph - N/A   Clear
8:35 AM 71.6 °F 68.0 °F 88% 29.77 in 10.0 mi WSW 5.8 mph - N/A   Clear
8:55 AM 73.4 °F 68.0 °F 83% 29.78 in 10.0 mi West 5.8 mph - N/A   Clear
9:15 AM 75.2 °F 69.8 °F 83% 29.79 in 10.0 mi WNW 8.1 mph - N/A   Clear
9:35 AM 75.2 °F 68.0 °F 78% 29.79 in 10.0 mi NNW 10.4 mph 16.1 mph N/A   Clear
9:55 AM 75.2 °F 69.8 °F 83% 29.80 in 10.0 mi NNW 13.8 mph - N/A   Scattered Clouds
10:15 AM 75.2 °F 69.8 °F 83% 29.80 in 10.0 mi North 11.5 mph - N/A   Mostly Cloudy
10:35 AM 75.2 °F 69.8 °F 83% 29.81 in 10.0 mi NNW 10.4 mph - N/A   Overcast
10:55 AM 75.2 °F 68.0 °F 78% 29.81 in 10.0 mi NNW 11.5 mph - N/A   Overcast
11:15 AM 77.0 °F 68.0 °F 74% 29.81 in 10.0 mi NNW 12.7 mph - N/A   Mostly Cloudy
11:35 AM 77.0 °F 66.2 °F 69% 29.82 in 10.0 mi NW 12.7 mph - N/A   Mostly Cloudy
11:55 AM 78.8 °F 68.0 °F 69% 29.82 in 10.0 mi NW 12.7 mph - N/A   Mostly Cloudy
12:15 PM 78.8 °F 66.2 °F 65% 29.83 in 10.0 mi NW 12.7 mph 16.1 mph N/A   Scattered Clouds
12:35 PM 78.8 °F 64.4 °F 61% 29.83 in 10.0 mi NW 11.5 mph - N/A   Partly Cloudy
12:55 PM 78.8 °F 64.4 °F 61% 29.83 in 10.0 mi NNW 12.7 mph - N/A   Clear
1:15 PM 78.8 °F 62.6 °F 57% 29.83 in 10.0 mi NNW 10.4 mph 18.4 mph N/A   Partly Cloudy
1:35 PM 78.8 °F 62.6 °F 57% 29.83 in 10.0 mi NNW 15.0 mph - N/A   Partly Cloudy
1:55 PM 78.8 °F 62.6 °F 57% 29.83 in 10.0 mi NNW 16.1 mph 20.7 mph N/A   Partly Cloudy
2:15 PM 78.8 °F 60.8 °F 54% 29.84 in 10.0 mi NNW 13.8 mph 21.9 mph N/A   Partly Cloudy
2:35 PM 78.8 °F 62.6 °F 57% 29.84 in 10.0 mi NNW 15.0 mph 24.2 mph N/A   Partly Cloudy
2:55 PM 78.8 °F 60.8 °F 54% 29.85 in 10.0 mi NW 13.8 mph 20.7 mph N/A   Partly Cloudy
3:15 PM 78.8 °F 62.6 °F 57% 29.84 in 10.0 mi NNW 16.1 mph - N/A   Partly Cloudy
3:35 PM 78.8 °F 62.6 °F 57% 29.85 in 10.0 mi NW 13.8 mph 18.4 mph N/A   Clear
3:55 PM 78.8 °F 62.6 °F 57% 29.85 in 10.0 mi NNW 13.8 mph 18.4 mph N/A   Scattered Clouds
4:15 PM 78.8 °F 60.8 °F 54% 29.85 in 10.0 mi NNW 12.7 mph - N/A   Partly Cloudy
4:35 PM 78.8 °F 60.8 °F 54% 29.85 in 10.0 mi NNW 15.0 mph - N/A   Clear
4:55 PM 78.8 °F 60.8 °F 54% 29.86 in 10.0 mi NNW 13.8 mph 23.0 mph N/A   Scattered Clouds
5:15 PM 78.8 °F 60.8 °F 54% 29.86 in 10.0 mi NW 12.7 mph 20.7 mph N/A   Scattered Clouds
5:35 PM 78.8 °F 60.8 °F 54% 29.86 in 10.0 mi NNW 15.0 mph - N/A   Scattered Clouds
5:55 PM 78.8 °F 60.8 °F 54% 29.86 in 10.0 mi NNW 16.1 mph 19.6 mph N/A   Partly Cloudy
6:15 PM 77.0 °F 60.8 °F 57% 29.86 in 10.0 mi NNW 12.7 mph - N/A   Partly Cloudy
6:35 PM 77.0 °F 60.8 °F 57% 29.86 in 10.0 mi NNW 12.7 mph 19.6 mph N/A   Partly Cloudy
6:55 PM 75.2 °F 60.8 °F 61% 29.87 in 10.0 mi NNW 15.0 mph - N/A   Partly Cloudy
7:15 PM 73.4 °F 60.8 °F 65% 29.88 in 10.0 mi North 12.7 mph - N/A   Partly Cloudy
7:35 PM 73.4 °F 60.8 °F 65% 29.88 in 10.0 mi North 12.7 mph - N/A   Partly Cloudy
7:55 PM 73.4 °F 59.0 °F 61% 29.89 in 10.0 mi North 11.5 mph 18.4 mph N/A   Scattered Clouds
8:15 PM 71.6 °F 59.0 °F 64% 29.89 in 10.0 mi North 10.4 mph - N/A   Partly Cloudy
8:35 PM 69.8 °F 57.2 °F 64% 29.89 in 10.0 mi North 11.5 mph - N/A   Clear
8:55 PM 68.0 °F 57.2 °F 68% 29.89 in 10.0 mi North 10.4 mph - N/A   Clear
9:15 PM 66.2 °F 57.2 °F 73% 29.90 in 10.0 mi North 6.9 mph - N/A   Clear
9:35 PM 64.4 °F 57.2 °F 77% 29.90 in 10.0 mi North 8.1 mph - N/A   Clear
9:55 PM 64.4 °F 57.2 °F 77% 29.92 in 10.0 mi North 8.1 mph - N/A   Clear
10:15 PM 62.6 °F 57.2 °F 82% 29.93 in 10.0 mi NNE 5.8 mph - N/A   Clear
10:35 PM 62.6 °F 57.2 °F 82% 29.94 in 10.0 mi NNE 5.8 mph - N/A   Clear
10:55 PM 62.6 °F 55.4 °F 77% 29.94 in 10.0 mi NNE 9.2 mph - N/A   Clear
11:15 PM 62.6 °F 55.4 °F 77% 29.95 in 10.0 mi NNE 6.9 mph - N/A   Clear
11:35 PM 60.8 °F 55.4 °F 82% 29.96 in 10.0 mi North 5.8 mph - N/A   Clear
11:55 PM 60.8 °F 55.4 °F 82% 29.97 in 10.0 mi North 3.5 mph - N/A   Clear